Location: LDNL
(36.4545°S, 141.6685°E)
Time: 10:19:42
(UTC+11:00)

CZ-2C DEB - Pass Details

Date: 14 October 2022
Orbit: 614 x 725 km, 98.4° (Epoch: 02 December)

Event Time Altitude Azimuth Distance (km) Brightness Sun altitude
Exits shadow 23:17:08 11° 171° (S) 2,049 ? -36.9°
Drops below altitude 10° 23:17:17 10° 172° (S) 2,107 ? -36.9°
Sets 23:19:45 0° 181° (S) 3,049 ? -37.2°
